Temperature
18 18 18 18 18 18 18 18 17 17 17 18 18 18 18 18 18 17 17 17 17 17 17 17 17 16 16 16 16 16 16 16 16 16 15 15 15 15
18 18 18 18 18 18 17 17 17 17 17 17 17 17 17 17 17 17 17 17 17 17 17 16 16 16 16 16 16 16 16 16 16 16 15 15 15 15
18 18 18 17 17 17 17 17 17 17 17 17 17 17 17 17 17 17 17 17 17 17 16 16 16 16 16 16 16 16 16 16 15 15 15 15 15 15
18 17 17 17 17 17 17 17 17 17 17 17 17 17 17 17 17 17 17 17 16 16 16 16 16 16 16 16 16 16 15 15 15 15 15 15 15 15
17 17 17 17 17 17 17 17 17 17 17 17 17 17 16 16 16 16 16 16 16 16 16 16 16 16 16 16 15 15 15 15 15 15 15 15 15 14
17 17 17 17 17 17 17 17 16 16 16 16 16 16 16 16 16 16 16 16 16 16 16 16 16 16 16 15 15 15 15 15 15 15 14 14 14 14
17 17 17 16 16 16 16 16 16 16 16 16 16 16 16 16 16 16 16 16 16 16 15 15 15 15 15 15 15 15 15 15 15 14 14 14 14 14
17 16 16 16 16 16 16 16 16 16 16 16 16 16 16 16 15 15 15 15 15 15 15 15 15 15 15 15 15 15 15 15 15 14 14 14 14 14
16 16 16 16 16 16 16 16 16 15 15 15 15 15 15 15 15 15 15 15 15 15 14 15 15 15 15 15 15 15 15 15 14 14 14 14 14 14
16 16 16 16 16 16 16 15 15 15 15 15 15 15 15 15 14 14 14 14 14 14 14 14 14 14 14 14 14 14 14 14 14 14 14 14 14 13
16 16 16 15 15 15 15 15 15 15 15 14 14 14 14 14 14 14 14 14 14 14 14 14 14 14 14 14 14 14 14 14 14 13 13 13 13 13
15 15 15 15 15 15 15 15 14 15 14 14 14 14 14 14 14 13 13 13 13 13 13 13 13 13 13 13 13 13 13 13 13 13 13 13 13 12
15 15 15 15 15 14 14 14 14 14 14 14 14 14 14 13 13 13 13 13 13 13 13 13 13 13 12 13 13 13 13 13 13 13 13 12 12 12
15 15 15 14 14 14 14 14 14 13 13 13 13 13 13 13 13 13 13 13 13 13 13 12 12 12 12 12 12 13 13 13 12 12 12 12 12 12
14 14 14 14 14 14 14 14 14 13 13 13 13 13 13 13 13 13 12 12 12 12 12 12 12 12 12 12 12 12 12 12 12 12 12 12 11 11
14 14 14 13 13 13 13 13 13 13 13 12 12 12 12 12 12 12 12 12 12 12 12 12 12 12 12 12 12 12 12 12 12 12 12 11 11 11
14 13 13 13 13 13 13 13 13 12 12 12 12 12 12 12 12 11 11 11 11 11 11 11 11 11 11 11 11 11 11 12 12 12 11 11 11 11
13 13 13 13 12 12 12 12 12 12 12 11 11 11 11 11 11 11 11 11 10 10 10 10 10 11 11 11 11 11 11 11 11 11 11 11 11 11
13 13 12 12 12 12 12 12 12 11 11 11 11 11 11 11 11 10 10 10 10 10 10 10 10 10 10 10 10 10 10 10 11 11 11 11 11 11
12 12 12 12 12 11 11 11 11 11 11 11 10 10 10 10 10 10 10 10 10 10 10 10 10 10 10 9 10 10 10 10 10 10 10 10 10 10
12 12 11 11 11 11 11 11 11 11 10 10 10 10 10 10 10 10 10 10 10 9 9 9 9 9 9 9 9 9 10 10 10 10 10 10 9 9
11 11 11 11 11 11 10 10 10 10 10 10 10 10 9 9 9 9 9 9 9 9 9 9 9 9 9 9 9 9 9 9 10 10 10 9 9 9
11 11 10 10 10 10 10 10 10 10 9 9 9 9 9 9 9 9 9 9 8 8 8 8 9 9 8 8 8 8 8 9 9 9 9 9 9 9
Wind_Speed
4 4 3 3 3 3 3 4 4 3 3 4 2 3 3 3 5 5 7 9 11 12 12 11 11 11 10 10 10 10 10 9 9 9 8 8 8 9
4 4 4 3 3 3 3 3 4 5 4 4 4 3 3 2 4 5 6 8 9 10 10 11 11 11 11 10 10 10 10 9 9 9 8 8 8 8
4 4 5 4 3 3 3 3 3 4 4 4 3 2 2 3 3 3 5 5 6 8 9 10 10 10 10 10 10 10 10 10 10 9 9 8 8 8
5 5 5 4 4 3 3 3 3 4 4 4 3 2 3 4 3 3 3 4 5 7 8 10 10 10 10 10 10 10 11 11 10 10 9 9 9 9
6 6 6 4 5 3 3 3 3 3 3 3 3 2 2 2 1 2 2 2 4 5 7 8 9 9 10 10 10 11 11 11 11 11 11 10 9 9
5 5 5 5 6 5 4 4 3 2 2 2 3 2 2 2 1 2 2 3 3 3 4 6 7 9 10 10 10 11 11 12 12 12 12 11 10 10
4 4 5 5 6 5 4 3 3 2 2 2 2 2 2 1 2 2 3 3 3 3 2 4 4 5 7 9 10 11 12 12 12 12 12 11 11 11
5 5 5 5 5 6 7 6 6 5 4 3 3 4 5 4 3 3 2 1 3 2 2 4 3 4 5 7 9 11 11 11 11 11 11 11 10 11
6 5 5 4 4 3 4 4 4 6 7 5 5 6 5 5 4 3 3 4 5 4 2 4 3 5 6 8 10 11 11 11 11 11 11 10 10 11
6 5 5 4 4 4 3 2 3 3 4 4 5 6 6 5 5 5 5 4 4 3 3 4 3 4 5 5 9 11 11 11 11 11 11 11 11 11
4 4 5 4 4 5 3 3 3 5 5 5 6 7 8 7 5 3 2 2 4 4 3 3 3 3 3 4 6 9 10 10 10 10 10 10 10 9
2 3 4 5 5 4 4 4 4 5 4 5 5 5 5 5 5 5 5 4 3 3 3 3 2 1 2 3 3 4 5 8 9 9 9 10 9 6
2 2 2 4 5 4 4 5 7 5 4 4 4 4 3 3 3 4 5 5 4 4 4 3 2 2 3 3 2 3 3 3 4 5 8 9 9 8
3 3 3 4 5 5 5 6 7 4 3 2 3 3 4 4 4 4 4 5 6 6 5 3 3 3 3 3 3 2 2 3 3 3 3 5 7 10
3 4 4 5 5 4 6 6 4 2 2 3 4 4 4 4 3 2 3 3 4 5 4 3 3 3 4 4 4 2 2 3 3 3 3 4 4 4
2 2 3 4 3 4 3 3 2 3 3 4 4 4 2 2 2 2 2 2 3 4 4 3 4 4 4 4 3 3 2 3 3 4 4 4 4 5
2 0 1 1 1 2 2 2 2 2 2 3 3 2 2 2 3 2 2 2 2 4 4 3 3 3 4 4 3 4 3 3 4 4 3 4 4 5
4 2 2 2 3 3 3 3 3 3 3 3 2 2 2 2 3 2 2 2 3 4 4 3 2 2 3 3 5 5 4 4 4 4 4 4 5 4
3 3 3 3 3 3 3 4 4 3 3 2 3 2 2 2 2 3 3 2 3 3 4 3 2 2 3 5 5 5 5 4 3 3 4 5 6 6
3 3 3 3 3 3 3 3 3 2 2 2 2 2 2 2 2 3 3 3 3 3 3 3 3 3 4 5 4 4 5 5 4 4 4 3 3 3
3 3 3 3 3 3 3 3 3 3 3 3 3 3 3 2 3 3 3 3 3 3 4 5 6 5 3 1 2 3 4 4 4 4 4 3 2 1
3 4 3 3 3 3 2 2 2 3 3 3 3 3 3 3 3 3 3 3 3 4 5 5 4 2 1 2 3 4 4 4 3 2 2 4 4 4
4 4 3 3 3 2 2 2 3 3 3 3 3 3 2 3 3 3 3 3 3 3 3 3 3 2 2 3 3 3 3 3 2 2 3 4 3 4
Wind_Direction
230 231 233 240 229 220 207 191 191 242 269 256 254 249 236 237 233 217 224 230 229 232 234 236 235 235 236 235 235 234 235 237 238 238 240 243 245 246
228 231 238 242 244 231 220 213 196 200 237 247 238 242 227 242 236 231 238 241 238 236 236 237 238 238 237 236 235 235 234 231 232 235 239 240 243 242
234 232 239 239 245 246 232 221 212 194 230 261 246 245 224 235 242 241 244 243 242 236 237 241 240 239 239 238 236 235 233 231 231 233 235 236 236 234
232 231 242 243 242 246 236 234 228 213 212 253 263 241 239 235 230 234 240 246 245 241 239 241 241 243 242 241 239 236 232 232 232 231 231 231 229 230
226 226 234 230 244 245 239 242 246 243 213 223 256 245 246 241 235 253 252 258 251 251 244 243 244 245 245 243 243 240 237 236 233 230 229 229 229 229
224 225 231 226 233 234 242 241 241 243 234 231 253 259 250 250 198 246 273 258 256 257 253 251 250 250 249 247 246 243 240 238 234 232 230 230 230 230
235 238 238 235 237 231 232 224 217 225 236 240 254 263 256 239 235 232 248 265 263 239 246 253 245 252 258 251 245 243 239 237 234 231 230 229 231 233
235 247 247 248 247 236 230 224 214 217 224 229 247 250 255 243 235 229 229 257 277 254 217 255 227 242 250 247 245 240 237 236 234 232 231 231 230 232
227 235 248 252 239 235 240 246 246 239 223 214 233 245 245 237 224 231 227 226 241 243 208 254 239 243 252 254 247 236 233 235 234 232 232 232 231 231
228 222 228 235 237 212 219 241 262 262 243 231 230 244 246 238 221 222 226 240 261 252 199 235 247 246 253 254 246 236 236 235 234 233 232 231 229 230
247 231 214 215 223 199 192 229 270 282 277 257 257 257 255 244 222 208 226 234 267 262 214 209 243 254 253 253 250 237 234 232 231 229 231 230 229 229
262 239 218 211 214 197 196 213 247 267 284 297 294 288 275 260 233 212 212 222 241 259 233 204 233 231 272 261 248 247 241 240 234 232 231 231 223 218
226 243 237 215 218 218 213 222 237 251 270 273 278 285 286 273 256 231 215 213 222 243 239 203 225 221 226 262 262 234 225 233 229 235 238 237 223 208
219 227 236 230 232 236 234 239 247 253 254 264 271 272 272 270 267 257 239 233 232 236 241 211 218 222 224 248 263 252 235 231 216 220 238 240 232 225
221 225 233 244 243 245 245 248 250 237 235 251 258 259 254 254 262 277 280 263 268 271 266 240 229 232 219 233 245 244 244 243 219 213 215 217 216 212
233 252 252 254 249 248 258 260 237 225 225 240 252 260 267 268 268 264 271 276 278 286 287 277 254 224 230 241 234 244 229 221 227 229 219 221 220 217
173 28 324 305 295 287 275 258 250 242 240 252 253 263 270 271 272 267 255 264 260 268 282 288 285 258 235 226 238 240 236 243 233 218 211 227 234 227
155 187 228 238 241 245 248 253 250 243 238 227 233 241 255 265 278 281 266 249 260 267 270 275 291 319 319 275 227 233 238 237 238 223 208 217 238 240
171 212 229 237 246 245 239 236 240 245 237 236 245 253 255 262 269 271 267 262 265 268 269 268 265 253 272 284 277 235 225 240 231 228 223 219 233 238
207 220 231 236 234 234 238 244 249 248 232 235 243 249 251 254 266 267 261 254 258 269 278 277 262 245 239 249 263 280 249 224 222 235 238 241 252 260
225 229 231 232 233 232 236 239 238 236 233 231 240 248 250 248 255 255 256 262 256 258 265 269 267 265 258 250 282 292 291 268 233 224 222 221 245 260
227 227 235 235 233 235 238 237 235 241 240 233 240 248 253 250 247 252 254 258 261 260 262 270 288 290 266 240 263 279 299 319 330 328 213 201 198 212
227 225 228 227 230 232 232 232 230 240 242 236 241 247 253 258 253 245 247 253 265 276 280 278 281 273 255 240 252 275 292 299 314 334 325 327 282 249
Height
1546 1546 1546 1546 1546 1546 1546 1546 1546 1544 1543 1543 1543 1543 1542 1542 1541 1541 1540 1540 1539 1539 1538 1538 1537 1537 1536 1536 1535 1535 1534 1534 1533 1533 1532 1532 1532 1532
1543 1543 1543 1543 1543 1543 1543 1542 1542 1542 1540 1539 1540 1540 1540 1539 1539 1538 1538 1537 1536 1536 1536 1535 1534 1534 1533 1532 1532 1531 1531 1531 1530 1530 1529 1529 1529 1528
1540 1540 1539 1539 1539 1539 1539 1539 1538 1538 1537 1536 1536 1537 1537 1536 1536 1535 1535 1534 1534 1533 1533 1532 1531 1531 1530 1529 1529 1528 1528 1527 1527 1526 1526 1526 1525 1525
1536 1536 1536 1536 1535 1535 1535 1535 1535 1535 1534 1532 1532 1533 1533 1533 1533 1532 1532 1531 1531 1530 1529 1529 1528 1527 1527 1526 1525 1525 1524 1524 1523 1523 1523 1522 1522 1521
1533 1533 1532 1532 1532 1532 1531 1531 1531 1531 1531 1530 1529 1529 1529 1529 1529 1528 1528 1528 1527 1527 1526 1525 1525 1524 1523 1523 1522 1521 1521 1520 1520 1519 1519 1518 1518 1518
1529 1529 1529 1528 1528 1528 1528 1527 1527 1527 1527 1526 1525 1525 1525 1525 1524 1524 1523 1523 1523 1523 1522 1521 1521 1520 1520 1519 1518 1518 1517 1516 1516 1515 1515 1515 1514 1514
1525 1525 1525 1524 1524 1524 1524 1524 1523 1523 1522 1522 1521 1521 1521 1520 1520 1519 1519 1519 1518 1518 1517 1517 1516 1516 1515 1515 1514 1514 1513 1512 1512 1511 1511 1511 1510 1510
1521 1521 1521 1521 1520 1520 1520 1520 1519 1519 1518 1517 1517 1516 1516 1516 1515 1515 1514 1514 1513 1514 1513 1512 1512 1511 1511 1510 1510 1509 1509 1508 1508 1507 1507 1506 1506 1506
1516 1517 1517 1516 1516 1516 1516 1515 1515 1515 1514 1514 1513 1512 1512 1511 1511 1510 1510 1509 1509 1509 1509 1507 1507 1506 1506 1506 1505 1505 1504 1504 1503 1503 1502 1502 1502 1501
1512 1512 1512 1512 1512 1512 1512 1511 1510 1510 1510 1509 1508 1508 1508 1507 1507 1507 1506 1506 1505 1505 1505 1503 1502 1501 1501 1501 1500 1500 1499 1499 1499 1498 1498 1498 1497 1497
1507 1507 1507 1508 1508 1508 1507 1506 1506 1505 1505 1504 1504 1503 1503 1503 1502 1502 1501 1501 1499 1499 1500 1499 1497 1496 1496 1495 1495 1495 1495 1494 1494 1494 1493 1493 1493 1493
1503 1503 1503 1503 1503 1503 1503 1502 1501 1500 1500 1499 1499 1498 1498 1498 1498 1497 1497 1496 1495 1494 1494 1494 1493 1492 1491 1490 1490 1490 1490 1489 1489 1489 1489 1489 1488 1487
1498 1498 1498 1499 1499 1499 1498 1498 1497 1496 1495 1494 1493 1493 1493 1493 1493 1493 1492 1492 1491 1490 1490 1490 1489 1488 1487 1486 1485 1485 1485 1485 1484 1484 1484 1484 1484 1483
1493 1493 1493 1494 1494 1494 1493 1493 1492 1492 1490 1489 1488 1488 1488 1487 1487 1487 1487 1487 1487 1486 1486 1485 1484 1484 1483 1481 1481 1480 1480 1480 1480 1479 1479 1479 1479 1479
1489 1489 1489 1489 1489 1489 1488 1488 1487 1486 1485 1484 1483 1483 1483 1482 1482 1482 1482 1482 1482 1482 1481 1480 1480 1479 1478 1477 1476 1476 1475 1475 1475 1475 1475 1474 1474 1473
1484 1484 1485 1485 1485 1484 1483 1483 1482 1481 1481 1480 1478 1478 1478 1478 1477 1477 1476 1476 1476 1475 1475 1475 1475 1474 1473 1472 1471 1471 1471 1470 1470 1470 1469 1469 1469 1468
1480 1480 1480 1480 1479 1479 1479 1478 1478 1477 1476 1475 1474 1474 1473 1473 1472 1472 1472 1472 1471 1469 1469 1469 1469 1469 1468 1467 1466 1466 1466 1465 1465 1465 1464 1464 1463 1463
1475 1475 1475 1475 1474 1474 1474 1474 1473 1472 1472 1471 1470 1470 1469 1468 1468 1468 1467 1467 1466 1465 1464 1464 1464 1463 1462 1461 1462 1461 1461 1460 1460 1459 1459 1458 1458 1458
1471 1470 1471 1470 1470 1470 1469 1469 1468 1468 1468 1467 1466 1465 1465 1464 1464 1463 1463 1462 1461 1461 1460 1460 1460 1459 1457 1456 1456 1457 1456 1455 1455 1454 1454 1453 1452 1453
1466 1466 1466 1466 1466 1465 1465 1464 1463 1463 1463 1462 1461 1461 1460 1459 1459 1458 1458 1457 1457 1456 1456 1456 1455 1454 1453 1453 1451 1451 1451 1451 1450 1448 1448 1448 1448 1449
1462 1462 1462 1461 1461 1460 1460 1459 1458 1458 1457 1457 1456 1455 1455 1454 1454 1453 1453 1453 1452 1452 1451 1450 1450 1451 1450 1449 1447 1446 1445 1446 1445 1444 1443 1443 1442 1442
1457 1457 1457 1456 1456 1455 1454 1454 1453 1453 1452 1452 1451 1450 1450 1449 1448 1448 1448 1448 1448 1447 1446 1446 1446 1446 1445 1444 1442 1441 1441 1440 1440 1440 1439 1438 1437 1436
1453 1452 1452 1452 1451 1450 1449 1448 1448 1447 1446 1446 1445 1445 1444 1444 1444 1443 1443 1443 1443 1443 1443 1442 1441 1441 1440 1440 1439 1438 1438 1437 1436 1435 1435 1434 1434 1434